Weather reports worldwide

Advertisment
Charterhall, United Kingdom (3158): temperature & dewpoint: 20.10.2020 03:00:00 - 26.10.2020 03:00:00 (GMT)Charterhall, United Kingdom (3158): temperature -20cm & temperature -100cm: 20.10.2020 03:00:00 - 26.10.2020 03:00:00 (GMT)Charterhall, United Kingdom (3158): wind speed & gusts: 20.10.2020 03:00:00 - 26.10.2020 03:00:00 (GMT)Charterhall, United Kingdom (3158): wind direction: 20.10.2020 03:00:00 - 26.10.2020 03:00:00 (GMT)Charterhall, United Kingdom (3158): reduced air pressure: 20.10.2020 03:00:00 - 26.10.2020 03:00:00 (GMT)Charterhall, United Kingdom (3158): visibility: 20.10.2020 03:00:00 - 26.10.2020 03:00:00 (GMT)Charterhall, United Kingdom (3158): sunshine duration: 20.10.2020 03:00:00 - 26.10.2020 03:00:00 (GMT)Charterhall, United Kingdom (3158): precipitation: 20.10.2020 03:00:00 - 26.10.2020 03:00:00 (GMT)
Date & Time tt [°C] td [°C] tt -20cm [°C] tt -100cm [°C] ff [km/h] ff [kn] fx [km/h] fx [kn] dd ppp [hPa] vv [km] sd [min] rr [mm]
26.10.2020 03:00:00 6,2 5,0 - - 13 7 - - S 984,9 55 0 0,0
26.10.2020 02:00:00 6,2 5,6 - - 9 5 - - S 985,6 50 0 0,0
26.10.2020 01:00:00 5,7 4,5 - - 13 7 - - SSW 985,8 75 0 0,0
26.10.2020 00:00:00 6,4 5,1 - - 22 12 - - SSW 986,0 70 - 0,0
25.10.2020 23:00:00 6,6 4,5 - - 18 10 - - SSW 986,6 75 0 0,0
25.10.2020 22:00:00 6,7 4,8 - - 15 8 - - SSW 986,6 45 0 0,0
25.10.2020 21:00:00 7,0 4,4 - - 24 13 - - SSW 986,5 45 0 0,0
25.10.2020 20:00:00 5,8 3,7 - - 11 6 - - S 986,5 45 0 0,0
25.10.2020 19:00:00 7,4 4,5 - - 24 13 - - SSW 986,5 45 0 0,0
25.10.2020 18:00:00 8,2 5,2 - - 26 14 - - SSW 986,8 40 0 0,2
25.10.2020 17:00:00 8,2 5,9 - - 24 13 46 25 SSW 986,5 35 0 0,0
25.10.2020 16:00:00 9,4 5,8 - - 28 15 - - SSW 986,1 45 6 0,0
25.10.2020 15:00:00 9,3 5,5 - - 28 15 48 26 SSW 985,7 50 18 0,0
25.10.2020 14:00:00 10,1 5,6 - - 39 21 61 33 SSW 985,5 55 54 0,0
25.10.2020 13:00:00 10,3 6,2 - - 31 17 50 27 SSW 985,4 45 42 0,0
25.10.2020 12:00:00 9,6 6,3 - - 24 13 - - SSW 985,4 60 42 0,0
25.10.2020 11:00:00 8,4 5,8 - - 35 19 48 26 SSW 985,2 45 18 0,0
25.10.2020 10:00:00 7,8 6,8 - - 28 15 - - SSW 984,9 6 24 0,4
25.10.2020 09:00:00 7,1 5,6 9,4 10,5 28 15 - - SSW 984,7 23 6 0,0
25.10.2020 08:00:00 6,5 5,3 - - 15 8 - - SSW 984,8 75 0 0,6
25.10.2020 07:00:00 6,4 4,9 - - 22 12 - - SSW 984,6 75 0 0,0
25.10.2020 06:00:00 5,5 4,7 - - 11 6 - - S 984,8 30 0 0,0
25.10.2020 05:00:00 4,7 4,3 - - 9 5 - - S 984,9 40 0 0,0
25.10.2020 04:00:00 2,9 2,8 - - 5 3 - - S 985,2 45 0 0,0
25.10.2020 03:00:00 2,7 2,5 - - 8 4 - - S 985,2 30 0 0,2
25.10.2020 02:00:00 3,6 3,4 - - 8 4 - - SSW 986,2 40 0 0,0
25.10.2020 01:00:00 3,0 2,6 - - 11 6 - - S 986,5 35 0 0,0
25.10.2020 00:00:00 - - - - - - - - - - - - -
24.10.2020 23:00:00 4,4 3,1 - - 5 3 - - SW 986,8 75 0 0,0
24.10.2020 22:00:00 6,6 5,6 - - 16 9 - - SW 987,0 9 0 0,6
24.10.2020 21:00:00 6,4 5,2 - - 13 7 - - SW 986,6 65 0 0,0
24.10.2020 20:00:00 7,3 6,2 - - 13 7 - - S 986,2 60 0 0,2
24.10.2020 19:00:00 8,1 6,6 - - 8 4 - - S 987,0 30 0 0,0
24.10.2020 18:00:00 8,4 6,8 - - 9 5 - - SE 987,6 30 0 0,0
24.10.2020 17:00:00 8,4 6,7 - - 5 3 - - SSE 987,7 30 0 0,0
24.10.2020 16:00:00 8,8 7,1 - - 9 5 - - SSW 988,2 30 0 0,0
24.10.2020 15:00:00 9,3 7,5 - - 21 11 - - SSW 988,7 30 0 0,0
24.10.2020 14:00:00 9,1 7,2 - - 22 12 - - SSW 989,4 35 0 0,0
24.10.2020 13:00:00 9,1 7,0 - - 24 13 - - SSW 990,0 45 0 0,2
24.10.2020 12:00:00 9,6 7,2 - - 21 11 - - SSW 990,3 60 0 0,0
24.10.2020 11:00:00 8,9 7,1 - - 24 13 - - S 989,8 75 0 0,2
24.10.2020 10:00:00 8,7 7,4 - - 16 9 46 25 W 990,1 13 0 1,2
24.10.2020 09:00:00 10,4 8,2 9,7 10,9 31 17 55 30 SSW 988,3 10 0 0,0
24.10.2020 08:00:00 9,9 7,2 - - 35 19 50 27 S 988,5 75 0 0,0
24.10.2020 07:00:00 9,0 6,2 - - 24 13 - - S 990,0 65 0 0,0
24.10.2020 06:00:00 8,4 5,8 - - 26 14 46 25 S 991,7 35 0 0,0
24.10.2020 05:00:00 8,1 5,6 - - 26 14 - - S 993,1 45 0 0,0
24.10.2020 04:00:00 7,9 5,4 - - 26 14 - - S 994,7 40 0 0,0
24.10.2020 03:00:00 7,4 5,6 - - 21 11 - - S 996,1 40 0 0,0
24.10.2020 02:00:00 6,2 5,1 - - 9 5 - - S 997,5 45 0 0,0
24.10.2020 01:00:00 4,6 3,9 - - 5 3 - - SE 999,2 30 0 0,0
24.10.2020 00:00:00 4,9 4,3 - - 9 5 - - SW 1000,0 40 - 0,0
23.10.2020 23:00:00 4,8 4,1 - - 11 6 - - SSW 1001,2 35 0 0,0
23.10.2020 22:00:00 3,8 3,4 - - 9 5 - - SW 1001,7 40 0 0,0
23.10.2020 21:00:00 4,1 3,7 - - 8 4 - - W 1001,9 50 0 0,0
23.10.2020 20:00:00 3,7 2,8 - - 8 4 - - SSW 1002,6 55 0 0,0
23.10.2020 19:00:00 3,5 2,0 - - 9 5 - - SW 1002,6 60 0 0,0
23.10.2020 18:00:00 5,9 3,8 - - 9 5 - - W 1001,8 70 0 0,0
23.10.2020 17:00:00 7,1 4,7 - - 5 3 - - SW 1001,3 75 6 0,0
23.10.2020 16:00:00 8,6 5,0 - - 11 6 - - WSW 1000,7 75 24 0,0
23.10.2020 15:00:00 9,4 5,5 - - 16 9 - - WSW 1000,3 75 48 0,0
23.10.2020 14:00:00 9,6 7,3 - - 16 9 - - W 999,9 75 24 0,6
23.10.2020 13:00:00 9,4 8,5 - - 18 10 - - SSW 999,5 - 0 0,0
23.10.2020 12:00:00 9,0 8,1 - - 16 9 - - SW 999,3 - 0 0,2
23.10.2020 11:00:00 8,1 6,9 - - 8 4 - - S 999,4 - 0 0,0
23.10.2020 10:00:00 7,5 6,5 - - 9 5 - - S 999,5 21 0 0,0
23.10.2020 09:00:00 7,0 5,9 10,2 11,0 8 4 - - SSW 999,8 50 0 0,0
23.10.2020 08:00:00 6,8 5,9 - - 8 4 - - S 1000,4 50 0 0,0
23.10.2020 07:00:00 6,2 5,7 - - 8 4 - - S 1000,6 50 0 0,2
23.10.2020 06:00:00 6,0 5,5 - - 5 3 - - S 1001,3 17 0 1,0
23.10.2020 05:00:00 6,1 5,5 - - 11 6 - - SSW 1001,7 13 0 1,2
23.10.2020 04:00:00 5,3 5,1 - - 5 3 - - SSE 1002,1 45 0 0,0
23.10.2020 03:00:00 4,9 4,4 - - 2 1 - - S 1002,6 19 0 0,0
23.10.2020 02:00:00 6,0 5,7 - - 5 3 - - SSW 1003,3 50 0 0,0
23.10.2020 01:00:00 6,0 5,4 - - 9 5 - - SW 1003,9 50 0 0,0
23.10.2020 00:00:00 5,2 4,8 - - 8 4 - - SW 1004,2 50 - 0,0
22.10.2020 23:00:00 5,2 4,7 - - 5 3 - - SW 1004,5 50 0 0,0
22.10.2020 22:00:00 6,6 5,8 - - 11 6 - - SSW 1004,7 50 0 0,0
22.10.2020 21:00:00 7,9 7,0 - - 11 6 - - WSW 1004,6 50 0 0,2
22.10.2020 20:00:00 8,5 8,3 - - 8 4 - - WSW 1004,4 5 0 1,2
22.10.2020 19:00:00 8,5 8,1 - - 8 4 - - SW 1004,1 50 0 0,6
22.10.2020 18:00:00 8,6 7,7 - - 5 3 - - SSW 1003,8 7 0 0,2
22.10.2020 17:00:00 9,9 7,7 - - 4 2 - - ENE 1003,1 21 0 0,0
22.10.2020 16:00:00 10,2 7,4 - - 5 3 - - NNE 1002,5 50 0 0,0
22.10.2020 15:00:00 10,6 7,7 - - 5 3 - - NNW 1002,1 50 0 0,0
22.10.2020 14:00:00 10,5 7,5 - - 11 6 - - NNW 1001,6 50 0 0,0
22.10.2020 13:00:00 10,7 8,5 - - 13 7 - - NNW 1001,0 50 0 0,0
22.10.2020 12:00:00 10,6 8,9 - - 15 8 - - NW 1000,5 45 0 0,0
22.10.2020 11:00:00 10,9 8,4 - - 16 9 - - WNW 999,8 35 0 0,0
22.10.2020 10:00:00 11,0 9,5 - - 13 7 - - W 998,8 50 0 0,0
22.10.2020 09:00:00 10,0 8,5 10,5 11,0 13 7 - - WSW 998,1 50 0 0,0
22.10.2020 08:00:00 9,0 8,0 - - 9 5 - - SW 997,2 50 0 0,0
22.10.2020 07:00:00 8,6 7,6 - - 13 7 - - SW 996,0 50 0 0,0
22.10.2020 06:00:00 7,1 7,1 - - 8 4 - - W 995,3 50 0 0,0
22.10.2020 05:00:00 5,6 5,1 - - 8 4 - - SW 995,0 50 0 0,0
22.10.2020 04:00:00 7,5 6,7 - - 8 4 - - SSW 994,5 50 0 0,0
22.10.2020 03:00:00 8,5 7,7 - - 11 6 - - SSW 994,4 18 0 0,0
22.10.2020 02:00:00 8,3 7,3 - - 13 7 - - SW 994,5 50 0 0,0
22.10.2020 01:00:00 8,8 7,3 - - 18 10 - - SW 994,7 50 0 0,0
22.10.2020 00:00:00 8,6 7,0 - - 16 9 - - SW 994,6 50 - 0,0
21.10.2020 23:00:00 9,3 7,5 - - 13 7 - - WSW 994,1 50 0 0,0
21.10.2020 22:00:00 9,6 9,0 - - 13 7 - - SSW 993,8 50 0 0,0
21.10.2020 21:00:00 9,8 8,8 - - 5 3 - - W 993,6 50 0 0,0
21.10.2020 20:00:00 10,9 9,7 - - 5 3 - - WSW 993,1 50 0 0,0
21.10.2020 19:00:00 11,1 9,7 - - 4 2 - - SW 992,7 50 0 0,0
21.10.2020 18:00:00 11,4 9,7 - - 15 8 - - SW 992,1 50 0 0,0
21.10.2020 17:00:00 12,4 9,4 - - 13 7 - - SW 991,4 45 0 0,0
21.10.2020 16:00:00 12,8 8,6 - - 21 11 - - SW 990,8 50 18 0,0
21.10.2020 15:00:00 14,5 9,4 - - 16 9 - - SSW 990,8 50 42 0,0
21.10.2020 14:00:00 14,6 10,1 - - 15 8 - - SSW 990,5 45 48 0,0
21.10.2020 13:00:00 15,0 11,9 - - 13 7 - - S 990,7 50 6 0,0
21.10.2020 12:00:00 13,7 11,2 - - 13 7 - - S 991,1 50 6 0,0
21.10.2020 11:00:00 14,8 11,6 - - 13 7 - - S 991,2 50 36 0,0
21.10.2020 10:00:00 12,9 10,9 - - 11 6 - - SW 991,7 50 18 0,0
21.10.2020 09:00:00 11,0 10,7 10,7 11,0 5 3 - - WSW 992,2 50 6 0,0
21.10.2020 08:00:00 9,6 9,2 - - 8 4 - - SW 992,4 50 0 0,0
21.10.2020 07:00:00 8,3 8,1 - - 4 2 - - W 992,2 45 0 0,0
21.10.2020 06:00:00 8,3 7,8 - - 2 1 - - S 992,5 40 0 0,0
21.10.2020 05:00:00 9,3 8,6 - - 5 3 - - SE 992,2 35 0 0,0
21.10.2020 04:00:00 9,6 8,8 - - 4 2 - - SSW 992,8 45 0 0,0
21.10.2020 03:00:00 9,0 7,7 - - 4 2 - - SSE 993,4 50 0 0,0
21.10.2020 02:00:00 10,4 8,9 - - 9 5 - - S 993,7 45 0 0,0
21.10.2020 01:00:00 9,8 8,6 - - 11 6 - - S 994,2 45 0 0,0
21.10.2020 00:00:00 10,0 8,8 - - 11 6 - - S 994,0 40 - 0,0
20.10.2020 23:00:00 10,5 9,2 - - 13 7 - - S 993,9 40 0 0,0
20.10.2020 22:00:00 11,0 9,1 - - 9 5 - - S 994,0 45 0 0,0
20.10.2020 21:00:00 11,6 9,8 - - 11 6 - - S 993,7 50 0 0,0
20.10.2020 20:00:00 9,7 8,8 - - 5 3 - - S 993,8 50 0 0,0
20.10.2020 19:00:00 9,9 9,3 - - 0 0 - - N 993,8 45 0 0,0
20.10.2020 18:00:00 11,7 10,2 - - 11 6 - - SW 993,8 50 0 0,2
20.10.2020 17:00:00 11,9 10,0 - - 5 3 - - SSW 993,5 50 0 0,0
20.10.2020 16:00:00 14,6 10,5 - - 24 13 - - S 993,4 50 12 0,0
20.10.2020 15:00:00 15,4 11,0 - - 21 11 - - S 993,3 45 0 0,0
20.10.2020 14:00:00 15,9 12,4 - - 9 5 - - SSE 993,7 50 0 0,0
20.10.2020 13:00:00 14,8 11,6 - - 8 4 - - S 994,1 50 24 0,0
20.10.2020 12:00:00 13,6 10,9 - - 13 7 - - SSW 994,6 45 36 0,0
20.10.2020 11:00:00 13,1 10,7 - - 13 7 - - SW 994,7 35 60 0,0
20.10.2020 10:00:00 11,5 10,4 - - 8 4 - - SW 994,6 28 12 0,0
20.10.2020 09:00:00 9,0 8,7 10,4 11,0 5 3 - - W 994,7 11 0 0,0
20.10.2020 08:00:00 8,2 8,0 - - 5 3 - - NNE 994,8 6 0 0,0
20.10.2020 07:00:00 8,0 7,6 - - 4 2 - - NE 994,5 4,4 0 1,4
20.10.2020 06:00:00 8,0 7,6 - - 5 3 - - NE 995,0 7 0 0,0
20.10.2020 05:00:00 8,1 7,7 - - 5 3 - - NNE 995,8 7 0 0,0
20.10.2020 04:00:00 8,2 7,9 - - 9 5 - - NNE 996,6 5 0 0,4
20.10.2020 03:00:00 8,3 8,1 - - 9 5 - - NNE 997,6 5 0 0,0

tt = temperature
td = dewpoint
tt -20cm = temperature -20cm
tt -100cm = temperature -100cm
ff = wind speed
fx = gusts
dd = wind direction
ppp = reduced air pressure
vv = visibility
sd = sunshine duration
rr = precipitation

Next stations